User: anonymous   Login
Location: *
(49.9853°N, 3.5569°E)
Time: 13:47:59
(UTC+00:00)
Language:

Cosmos 2297 Rocket - Orbit

View from above orbital plane
View from above orbital plane
View from above satellite
View from above satellite

Ground track
Ground track

The orbit data is extracted from the following two-line orbital elements,

1 23405U 94077B   19316.07974729  .00000012  00000-0  30779-4 0  9999
2 23405  70.9813 169.6127 0000909  17.7874 342.3280 14.15211519289717
Epoch (UTC): 12 November 2019 01:54:50
Eccentricity: 0.0000909
inclination: 70.9813°
perigee height: 841 km
apogee height: 842 km
right ascension of ascending node: 169.6127°
argument of perigee: 17.7874°
revolutions per day: 14.15211519
mean anomaly at epoch: 342.3280°
orbit number at epoch: 28971

The dashed part of the orbit path shows where the satellite is in the earth's shadow,  

DLR